Weather History for EINN - December, 2012

Change the Weather History Date:

Saturday, December 8, 2012

  Actual Average Record
Temperature  
Mean Temperature 38 °F -  
Max Temperature 46 °F 48 °F 55 °F (2001)
Min Temperature 31 °F 38 °F 23 °F (2010)
Degree Days  
Heating Degree Days 26    
Moisture  
Dew Point 39 °F    
Average Humidity 92    
Maximum Humidity 100    
Minimum Humidity 86    
Precipitation  
Precipitation 0.00 in 0.13 in - ()
Sea Level Pressure  
Sea Level Pressure 30.34 in    
Wind  
Wind Speed 4 mph ()    
Max Wind Speed 13 mph    
Max Gust Speed -    
Visibility 6.5 miles    
Events Rain    
Averages and records for this station are not official NWS values.
T = Trace of Precipitation, MM = Missing Value Source: Averaged Metar Reports

Daily Weather History Graph

Daily Weather History Graph

Search for Another Location

Airport or City:

Trip Planner

Search our weather history database for the weather conditions in past years. The results will help you decide how hot, cold, wet, or windy it might be!

Date:

Astronomy

Dec. 08, 2012 Rise Set
Actual Time 8:34 AM GMT 4:20 PM GMT
Civil Twilight 7:53 AM GMT 5:02 PM GMT
Nautical Twilight 7:08 AM GMT 5:46 PM GMT
Astronomical Twilight 6:27 AM GMT 6:28 PM GMT
Moon 2:06 AM GMT (12/8) 1:17 PM GMT (12/8)
Length of Visible Light 9h 09m
Length of Day
7h 46m
Waning Crescent, 30% of the Moon is Illuminated
Dec 8
Waning Crescent
Dec 13
New
Dec 20
First Quarter
Dec 28
Full
Jan 5
Last Quarter

Hourly Weather History & Observations

Time (GMT) Temp. Windchill Dew Point Humidity Pressure Visibility Wind Dir Wind Speed Gust Speed Precip Events Conditions
12:00 AM 37 °F - 36 °F 92% 30.30 in 12 mi WNW 2.2 mph - -   Scattered Clouds
12:00 AM 37.4 °F - 35.6 °F 93% 30.27 in 6.2 mi West 1.2 mph - N/A   Partly Cloudy
12:30 AM 35.6 °F 30.7 °F 33.8 °F 93% 30.30 in 6.2 mi NW 5.8 mph - N/A   Partly Cloudy
1:00 AM 35.6 °F 29.9 °F 33.8 °F 93% 30.30 in - WNW 6.9 mph - N/A   Clear
1:30 AM 35.6 °F 31.7 °F 33.8 °F 93% 30.30 in - WNW 4.6 mph - N/A   Clear
2:00 AM 35.6 °F 32.8 °F 33.8 °F 93% 30.30 in - WNW 3.5 mph - N/A   Clear
2:30 AM 33.8 °F - 32.0 °F 93% 30.30 in - ESE 1.2 mph - N/A   Clear
3:00 AM 33.8 °F - 32.0 °F 93% 30.30 in - Calm Calm - N/A   Clear
3:30 AM 32.0 °F - 30.2 °F 93% 30.30 in - East 1.2 mph - N/A   Clear
4:00 AM 32.0 °F - 30.2 °F 93% 30.33 in 6.2 mi Calm Calm - N/A   Partly Cloudy
4:30 AM 32.0 °F - 30.2 °F 93% 30.33 in 6.2 mi ESE 1.2 mph - N/A   Mostly Cloudy
5:00 AM 33.8 °F - 32.0 °F 93% 30.33 in 6.2 mi ENE 1.2 mph - N/A   Mostly Cloudy
5:30 AM 33.8 °F - 33.8 °F 100% 30.33 in 6.2 mi East 1.2 mph - N/A   Mostly Cloudy
6:00 AM 35 °F - 34 °F 94% 30.35 in 9 mi ESE 2.2 mph - -   Mist
6:00 AM 35.6 °F - 33.8 °F 93% 30.33 in 6.2 mi ESE 1.2 mph - N/A   Mostly Cloudy
6:30 AM 35.6 °F - 33.8 °F 93% 30.33 in 6.2 mi SE 2.3 mph - N/A   Mostly Cloudy
7:00 AM 35.6 °F - 33.8 °F 93% 30.33 in 6.2 mi ENE 1.2 mph - N/A   Mostly Cloudy
7:30 AM 35.6 °F 31.7 °F 35.6 °F 100% 30.33 in 6.2 mi SE 4.6 mph - N/A   Mostly Cloudy
8:00 AM 35.6 °F - 35.6 °F 100% 30.36 in 1.9 mi SSE 2.3 mph - N/A   Light Drizzle
8:30 AM 37.4 °F 34.9 °F 37.4 °F 100% 30.36 in 6.2 mi SSW 3.5 mph - N/A   Mostly Cloudy
9:00 AM 37.4 °F 33.8 °F 37.4 °F 100% 30.36 in 6.2 mi SE 4.6 mph - N/A   Mostly Cloudy
9:30 AM 39.2 °F 35.0 °F 37.4 °F 93% 30.36 in 6.2 mi SE 5.8 mph - N/A   Mostly Cloudy
10:00 AM 39.2 °F 37.0 °F 39.2 °F 100% 30.36 in 6.2 mi South 3.5 mph - N/A   Mostly Cloudy
10:30 AM 42.8 °F - 41.0 °F 93% 30.36 in 6.2 mi West 1.2 mph - N/A   Mostly Cloudy
11:00 AM 42.8 °F 37.5 °F 41.0 °F 93% 30.36 in 6.2 mi WSW 9.2 mph - N/A   Mostly Cloudy
11:30 AM 44.6 °F 40.2 °F 41.0 °F 87% 30.39 in 6.2 mi WSW 8.1 mph - N/A   Mostly Cloudy
12:00 PM 45 °F - 42 °F 86% 30.39 in 12 mi WSW 11.2 mph - -   Partly Cloudy
12:00 PM 44.6 °F 39.2 °F 42.8 °F 93% 30.39 in 6.2 mi WSW 10.4 mph - N/A   Mostly Cloudy
12:30 PM 46.4 °F 43.5 °F 42.8 °F 87% 30.36 in 6.2 mi West 5.8 mph - N/A   Mostly Cloudy
1:00 PM 46.4 °F 41.1 °F 42.8 °F 87% 30.36 in 6.2 mi WSW 11.5 mph - N/A   Mostly Cloudy
1:30 PM 46.4 °F 41.5 °F 42.8 °F 87% 30.36 in 6.2 mi WSW 10.4 mph - N/A   Mostly Cloudy
2:00 PM 46.4 °F 41.9 °F 42.8 °F 87% 30.36 in 6.2 mi SW 9.2 mph - N/A   Mostly Cloudy
2:30 PM 46.4 °F 41.1 °F 42.8 °F 87% 30.36 in 6.2 mi SW 11.5 mph - N/A   Mostly Cloudy
3:00 PM 46.4 °F 41.1 °F 42.8 °F 87% 30.36 in 6.2 mi SW 11.5 mph - N/A   Mostly Cloudy
3:30 PM 46.4 °F 41.9 °F 44.6 °F 93% 30.36 in 6.2 mi West 9.2 mph - N/A   Mostly Cloudy
4:00 PM 46.4 °F 42.9 °F 42.8 °F 87% 30.36 in 6.2 mi West 6.9 mph - N/A   Mostly Cloudy
4:30 PM 46.4 °F 42.4 °F 42.8 °F 87% 30.36 in 6.2 mi West 8.1 mph - N/A   Mostly Cloudy
5:00 PM 46.4 °F 43.5 °F 42.8 °F 87% 30.36 in 6.2 mi WSW 5.8 mph - N/A   Mostly Cloudy
5:30 PM 46.4 °F 44.3 °F 42.8 °F 87% 30.36 in 6.2 mi WSW 4.6 mph - N/A   Light Drizzle
6:00 PM 46 °F - 43 °F 86% 30.38 in 12 mi SW 6.7 mph - - Rain Light Drizzle
6:00 PM 46.4 °F 43.5 °F 42.8 °F 87% 30.36 in 6.2 mi SW 5.8 mph - N/A   Mostly Cloudy
6:30 PM 46.4 °F 42.9 °F 42.8 °F 87% 30.36 in 6.2 mi SW 6.9 mph - N/A   Mostly Cloudy
7:00 PM 44.6 °F 39.7 °F 42.8 °F 93% 30.36 in 6.2 mi SW 9.2 mph - N/A   Light Drizzle
7:30 PM 46.4 °F 40.7 °F 42.8 °F 87% 30.36 in 6.2 mi WSW 12.7 mph - N/A   Light Drizzle
8:00 PM 46.4 °F 41.5 °F 42.8 °F 87% 30.36 in 6.2 mi WSW 10.4 mph - N/A   Mostly Cloudy
8:30 PM 44.6 °F 39.7 °F 42.8 °F 93% 30.36 in 6.2 mi WSW 9.2 mph - N/A   Mostly Cloudy
9:00 PM 44.6 °F 39.7 °F 42.8 °F 93% 30.36 in 6.2 mi WSW 9.2 mph - N/A   Light Drizzle
9:30 PM 44.6 °F 40.2 °F 42.8 °F 93% 30.36 in 6.2 mi West 8.1 mph - N/A   Mostly Cloudy
10:00 PM 44.6 °F 41.4 °F 42.8 °F 93% 30.36 in 6.2 mi WSW 5.8 mph - N/A   Mostly Cloudy
10:30 PM 46.4 °F 41.9 °F 42.8 °F 87% 30.33 in 6.2 mi WSW 9.2 mph - N/A   Light Drizzle
11:00 PM 44.6 °F 40.2 °F 42.8 °F 93% 30.33 in 5.6 mi SW 8.1 mph - N/A   Light Drizzle
11:30 PM 44.6 °F 40.2 °F 42.8 °F 93% 30.33 in 6.2 mi WSW 8.1 mph - N/A   Light Drizzle